Regional Weather Roundup
Issued by NWS

Home | Current Version | Previous Version | Text Only | Print | Product List | Glossary Off
Versions: 1 2 3 4 5 6 7 8 9 10 11 12 13 14 15 16 17 18 19 20 21 22 23 24 25 26 27 28 29 30 31 32 33 34 35 36 37 38 39 40 41 42 43 44 45 46 47 48 49 50

000
ASUS43 KOAX 290210
RWRNE

WEATHER ROUNDUP FOR NEBRASKA
NATIONAL WEATHER SERVICE OMAHA NE
900 PM CDT SUN AUG 28 2016

NOTES: SATELLITE DATA IS BEING USED TO AUGMENT CLOUD COVER ABOVE
       12000 FEET.
       "FAIR" INDICATES FEW OR NO CLOUDS BELOW 12,000 FEET WITH NO
       SIGNIFICANT WEATHER AND/OR OBSTRUCTIONS TO VISIBILITY.

  * THESE STATIONS DO NOT REPORT WEATHER SUCH AS RAIN...SNOW OR FOG.

NEZ001>004-019>022-054>056-290300-
NEBRASKA PANHANDLE

CITY           SKY/WX    TMP DP  RH WIND       PRES   REMARKS
SCOTTSBLUFF    CLOUDY    77  51  40 S5        30.08R
ALLIANCE       CLOUDY    70  55  59 S9        30.08R
CHADRON        CLEAR     77  45  32 S8        30.02R
KIMBALL        CLOUDY    77  39  25 S8G20     30.15R
SIDNEY         PTCLDY    70  47  43 SW12      30.15S
$$

NEZ057>060-069>072-079>082-290300-
SOUTHWEST NEBRASKA

CITY           SKY/WX    TMP DP  RH WIND       PRES   REMARKS
NORTH PLATTE   CLEAR     73  60  63 SE6       30.10R
IMPERIAL       CLEAR     69  61  75 SE7       30.11R
LEXINGTON      CLEAR     74  64  71 CALM      30.10R
MCCOOK         CLEAR     73  62  68 E8        30.09R
OGALLALA       CLEAR     75  57  52 SE6       30.10R
$$

NEZ005>010-023>029-035>040-094-290300-
NORTH CENTRAL NEBRASKA

CITY           SKY/WX    TMP DP  RH WIND       PRES   REMARKS
VALENTINE      PTCLDY    79  60  52 SE13      30.03R
AINSWORTH      CLEAR     78  62  58 S10       30.06R
BROKEN BOW     CLEAR     73  61  65 CALM      30.10R
O`NEILL        PTCLDY    79  65  62 S7        30.08R
ORD            PTCLDY    75  65  70 S5        30.07R
THEDFORD       CLEAR     77  56  49 S10       30.10R
$$

NEZ041-046>049-061>064-073>077-083>087-290300-
SOUTH CENTRAL NEBRASKA

CITY           SKY/WX    TMP DP  RH WIND       PRES   REMARKS
GRAND ISLAND   PTCLDY    78  68  71 SE7       30.09R
AURORA         PTCLDY    76  70  80 SE13      30.09R
HASTINGS       CLEAR     78  67  68 SE6       30.10R
HEBRON         CLOUDY    74  67  77 E14G20    30.10R
HOLDREGE       CLEAR     74  64  69 S5        30.10R
KEARNEY *      CLOUDY    75  66  73 CALM      30.09R
YORK           PTCLDY    75  68  78 S13       30.10R
$$

NEZ011>018-030>034-042>045-290300-
NORTHEAST NEBRASKA

CITY           SKY/WX    TMP DP  RH WIND       PRES   REMARKS
NORFOLK        PTCLDY    76  66  71 SE12      30.09R
ALBION         PTCLDY    76  68  76 SE6       30.08R
BLAIR          MOCLDY    71  66  84 SE7       30.10F
FREMONT        PTCLDY    73  66  78 SE8       30.11S
TEKAMAH        CLOUDY    69  66  90 SW7       30.08F
WAYNE          PTCLDY    74  69  84 SE13      30.11R
$$

NEZ050>053-065>068-078-088>093-290300-
SOUTHEAST NEBRASKA

CITY           SKY/WX    TMP DP  RH WIND       PRES   REMARKS
LINCOLN        CLOUDY    74  65  73 S6        30.10R
OMAHA EPPLEY   MOCLDY    74  66  76 S9        30.10S
BEATRICE       CLOUDY    73  66  78 SE12      30.08F
FALLS CITY     CLOUDY    71  69  93 E3        30.10R
NEBRASKA CITY  CLOUDY    70  68  92 SE6       30.12R
PLATTSMOUTH    CLOUDY    70  67  91 SE5       30.12R
$$

NEZ044-045-051>053-067-290300-
OMAHA AREA

CITY           SKY/WX    TMP DP  RH WIND       PRES   REMARKS
OMAHA EPPLEY   MOCLDY    74  66  76 S9        30.10S
BLAIR          MOCLDY    71  66  84 SE7       30.10F
FREMONT        PTCLDY    73  66  78 SE8       30.11S
MILLARD        PTCLDY    73  66  80 SE5       30.10F
OFFUTT AFB     MOCLDY    70  67  92 E7        30.10S
PLATTSMOUTH    CLOUDY    70  67  91 SE5       30.12R
WAHOO          FAIR      72  67  85 SE6       30.11R
$$




USA.gov is the U.S. government's official web portal to all federal, state and local government web resources and services.